Preview of NWS' New Version of Forecast
This preview is not operational and should not be used for support decisions.

Regional Weather Roundup (RWR)

Issued by National Weather Service (NWS)

                            
000
ASUS42 KTBW 251015
RWRFL 
FLORIDA REGIONAL WEATHER ROUNDUP
NATIONAL WEATHER SERVICE TAMPA BAY RUSKIN FL
600 AM EDT TUE JUN 25 2019

NOTE: "FAIR" INDICATES FEW OR NO CLOUDS BELOW 12,000 FEET WITH NO
SIGNIFICANT WEATHER AND/OR OBSTRUCTIONS TO VISIBILITY.

FLZ001>010-012>015-112-114-115-251100-
PANHANDLE FLORIDA
  
CITY           SKY/WX    TMP DP  RH WIND       PRES   REMARKS
PENSACOLA      FAIR      82  81  96 W6        30.02R HX  95           
PENSACOLA NAS  FAIR      82  79  90 W5        30.02R                  
MILTON NAS     FAIR      77  77 100 W5        30.03R                  
CRESTVIEW      FAIR      76  74  93 CALM      30.04S FOG              
DUKE FIELD     FAIR      79  79 100 CALM      30.03R                  
VALPARAISO     FAIR      81  79  91 CALM      30.02R                  
MARY ESTHER    PTCLDY    82  79  89 SW3       30.01S                  
TRI COUNTY     FAIR      75  74  96 CALM      30.04R                  
PANAMA CITY    FAIR      80  77  90 SW5       30.01S                  
TYNDALL AFB    FAIR      83  78  83 W9        30.02R                  
APALACHICOLA   FAIR      81  76  84 W6        30.02S                  

STATION/POSITION SKY/WX   TEMP    WIND        PRES    WAVE   SWELL
                          AIR SEA DIR/SP/G            HT/PER HT/PER
                          (F)     (DEG/KT/KT) (MB)    (FT/S) (FT/S)
30.1N   87.6W                                   N/A     3/ 7
29.2N   88.2W                     210/ 12/ 14 1017.4R   3/ 6   2/ 6
PANAMA CITY BEAC           84 85  250/ 13/ 15 1017.1R
TOWER C          NOT AVBL

$$
FLZ011-016>038-118-127-128-134-139-239-251100-
NORTH FLORIDA
  
CITY           SKY/WX    TMP DP  RH WIND       PRES   REMARKS
MARIANNA       MOCLDY    78  78 100 W5        30.02R                  
TALLAHASSEE    FAIR      79  78  97 W5        30.02R                  
PERRY          FAIR      78  77  97 CALM      30.03R FOG              
LIVE OAK       PTCLDY    73  73 100 CALM      30.02R FOG              
CROSS CITY     FAIR      79  78  96 W5        30.02R FOG              
LAKE CITY      FOG       73  73 100 W3        30.02R VSB 1/2          
GAINESVILLE    FAIR      76  76 100 W3        30.04R                  
PALATKA        FAIR      73  73 100 W3        30.02R FOG              
MAYPORT NAS    FAIR      81  76  84 W8        30.00R                  
JACKSONVILLE   FAIR      74  71  91 W6        30.00R                  
JAX NAS        FAIR      79  73  82 W3        30.01R                  
JAX CECIL      FAIR      77  75  94 CALM      30.01R                  
FERNANDINA BEA FAIR      76  73  90 W7        30.00R                  
ST AUGUSTINE   FAIR      77  75  93 W6        30.02R                  
PALM COAST     CLEAR     75  75 100 CALM      30.01R                  

STATION/POSITION SKY/WX   TEMP    WIND        PRES    WAVE   SWELL
                          AIR SEA DIR/SP/G            HT/PER HT/PER
                          (F)     (DEG/KT/KT) (MB)    (FT/S) (FT/S)
SHELL POINT      NOT AVBL
KEATON BEACH               84     270/ 12/ 14 1016.8R
CEDAR KEY                  83     290/  6/  8 1016.7R
FERNANDINA                 80 84  260/  7/ 10 1016.4R
30.7N   81.3W                 82                N/A     2/ 2
MAYPORT                    80 83  260/  9/ 12 1015.7R
31.4N   80.9W              81 83  280/ 16/ 19 1014.8R   3/ 4
ST AUGUSTINE               78 80  260/  6/  8 1016.3R

$$
FLZ040-043>046-052-053-057-058-063-144-251100-
INTERIOR CENTRAL FLORIDA
  
CITY           SKY/WX    TMP DP  RH WIND       PRES   REMARKS
OCALA          FAIR      77  76  96 CALM      30.03R                  
LEESBURG       FAIR      77  76  96 W5        30.03R                  
SANFORD        FAIR      78  75  90 W3        30.02R                  
ORLANDO EXEC   FAIR      81  76  84 W3        30.02R                  
ORLANDO INTL   FAIR      77  74  90 CALM      30.03R                  
KISSIMMEE      FAIR      77  75  93 CALM      30.04R                  
WINTER HAVEN   FAIR      79  74  84 W5        30.04R                  
LAKELAND       FAIR      75  73  94 CALM      30.04R                  
SEBRING        FAIR      75  73  92 N6        30.04R                  
OKEECHOBEE     FAIR      73  72  94 CALM      30.02R                  

$$
FLZ041-047-054-059-064-141-147-251100-
EAST CENTRAL FLORIDA
  
CITY           SKY/WX    TMP DP  RH WIND       PRES   REMARKS
DAYTONA BEACH  FAIR      76  76 100 W6        30.01R                  
DELAND         FAIR      77  75  94 W3        30.02R                  
JFK SPACE CTR  FAIR      77  65  65 CALM      30.01R                  
CAPE CANAVERAL FAIR      79  40  24 NW3       30.00R                  
PATRICK AFB    FAIR      81  77  89 NW6       30.02R                  
MELBOURNE      FAIR      77  73  87 W5        30.01R                  
VERO BEACH     FAIR      76  74  93 W3        30.02R                  
FT PIERCE      FAIR      76  72  87 W5        30.02R FOG              
STUART         FAIR      79  73  83 W6        30.02R                  

STATION/POSITION SKY/WX   TEMP    WIND        PRES    WAVE   SWELL
                          AIR SEA DIR/SP/G            HT/PER HT/PER
                          (F)     (DEG/KT/KT) (MB)    (FT/S) (FT/S)
28.5N   80.2W              81 82  300/  8/ 10 1016.1R   1/ 9   2/ 9
28.9N   78.5W              83     230/ 12/ 14   N/A     2/ 9   2/ 9
TRIDENT PIER               80 76  270/  3/  5 1017.4R
28.4N   80.5W                 79                N/A     1/ 9
27.5N   80.2W                 81                N/A     1/ 8

$$
FLZ050-056-061-142-242-148-248-149-249-151-251-155-255-
160-260-251100-
WEST CENTRAL FLORIDA
  
CITY           SKY/WX    TMP DP  RH WIND       PRES   REMARKS
CRYSTAL RIVER  FAIR     N/A N/A N/A CALM      30.03R                  
INVERNESS      FAIR      73  73 100 CALM      30.03R FOG              
BROOKSVILLE    FAIR      72  71  97 CALM      30.04R                  
CLEARWATER AIR FAIR      79  73  83 CALM      30.03R                  
ST PETE CLEARW FAIR      78  75  90 W3        30.03R                  
TAMPA INTL     FAIR      81  76  84 NW3       30.04R                  
PLANT CITY       N/A    N/A N/A N/A MISG        N/A                   
MACDILL AFB    FAIR      80  76  86 CALM      30.03R                  
PETER O KNIGHT CLOUDY   N/A N/A N/A CALM      30.04R                  
ST PETERSBURG    N/A    N/A N/A N/A MISG      30.02R                  
SARASOTA       FAIR      78  75  90 CALM      30.01R                  
VENICE         FAIR      79  75  89 NE3       30.04R                  

STATION/POSITION SKY/WX   TEMP    WIND        PRES    WAVE   SWELL
                          AIR SEA DIR/SP/G            HT/PER HT/PER
                          (F)     (DEG/KT/KT) (MB)    (FT/S) (FT/S)
27.3N   84.2W                 86                N/A     1/ 7
CLEARWATER BEACH           84 89  260/  7/  8 1017.0R
MIDDLE TAMPA BAY           83     350/  5/  6 1016.7R
VENICE                     80 86   50/  5/  5 1016.8R

$$
FLZ066-069-070-075>078-162-262-165-265-251100-
SOUTHWEST FLORIDA AND KEYS
  
CITY           SKY/WX    TMP DP  RH WIND       PRES   REMARKS
PUNTA GORDA    FAIR      75  74  96 N5        30.05R                  
FT MYERS       FAIR      80  32  17 CALM      30.02R                  
SOUTHWEST INTL FAIR      79  74  84 CALM      30.02R                  
NAPLES         FAIR      80  77  90 CALM      30.02R                  
IMMOKALEE      FAIR      75  73  94 NW3       30.00R                  
MARATHON       FAIR      83  74  74 SE5       30.02S                  
KEY WEST NAS   FAIR      83  73  72 SE3       30.02R                  
KEY WEST INTL  FAIR      83  74  74 SE5       30.03R                  

STATION/POSITION SKY/WX   TEMP    WIND        PRES    WAVE   SWELL
                          AIR SEA DIR/SP/G            HT/PER HT/PER
                          (F)     (DEG/KT/KT) (MB)    (FT/S) (FT/S)
NAPLES                     83 89              1016.6R
DRY TORTUGAS               85     150/  3/  3 1017.1R
SAND KEY                   84                 1016.7R
SOMBRERO KEY               83                 1015.9R
LONG KEY                   85     140/ 10/ 16 1016.6

$$
FLZ067-068-071>074-168-172>174-251100-
SOUTHEAST FLORIDA 
  
CITY           SKY/WX    TMP DP  RH WIND       PRES   REMARKS
W PALM BEACH   FAIR      81  75  82 S5        30.01S                  
FT LAUDER-EXEC FAIR      79  74  84 CALM      30.01R                  
FT LAUDERDALE  FAIR      82  74  76 SW3       30.00R                  
POMPANO BEACH  FAIR      82  74  76 CALM      30.01R                  
PEMBROKE PINES FAIR      81  74  79 CALM      30.03R                  
OPA LOCKA      FAIR      81  74  79 SW5       30.02R                  
MIAMI          FAIR      83  72  69 S5        30.02R                  
WEST KENDALL   FAIR      80  75  84 S6        30.01R                  
HOMESTEAD      FAIR      78  74  88 S3        30.01R                  

STATION/POSITION SKY/WX   TEMP    WIND        PRES    WAVE   SWELL
                          AIR SEA DIR/SP/G            HT/PER HT/PER
                          (F)     (DEG/KT/KT) (MB)    (FT/S) (FT/S)
VIRGINIA KEY               86 90  210/  6/  8 1015.8R
LAKE WORTH                 83 83  210/  5/  7 1017.2F
FOWEY ROCKS                84 85  190/  8/  8 1016.9R
SETTLEMENT POINT           85     250/  7/  9 1016.7R

$$